WZZ29A EPKT-LICC

Flight info

Callsign WZZ29A
Flight time N/A
Altitude 36000
Route EPKT SID TUSIN DCT BILNA DCT BABNI DCT GYR DCT VEBAL DCT ELTIB DCT GARGA DCT DOGUS DCT EVINO DCT SOBRI DCT UXUTA STAR LICC
Aircraft A320/M-V/N

Departure

Time 2026-05-06 18:56
Airport Katowice Wojciech Korfanty International Airport (EPKT)

Arrival

Time N/A
Airport Catania-Fontanarossa Airport (LICC)
Time Latitude Longitude Altitude Speed Heading
2026-05-06 18:16 50.47141 19.07965 983 ft 0 kts 180°
2026-05-06 18:47 50.47154 19.07965 983 ft 2 kts 180°
2026-05-06 18:47 50.47168 19.07965 983 ft 2 kts 180°
2026-05-06 18:47 50.47183 19.07965 983 ft 2 kts 180°
2026-05-06 18:47 50.47197 19.07965 983 ft 0 kts 180°
2026-05-06 18:48 50.47208 19.07965 983 ft 2 kts 163°
2026-05-06 18:48 50.47222 19.07954 983 ft 2 kts 140°
2026-05-06 18:48 50.47231 19.07936 983 ft 2 kts 115°
2026-05-06 18:48 50.47235 19.07915 983 ft 0 kts 93°
2026-05-06 18:49 50.47235 19.07905 983 ft 1 kts 89°
2026-05-06 18:49 50.47235 19.07903 983 ft 0 kts 89°
2026-05-06 18:51 50.47235 19.07907 983 ft 2 kts 89°
2026-05-06 18:51 50.47235 19.07979 983 ft 8 kts 89°
2026-05-06 18:52 50.47235 19.08077 983 ft 9 kts 90°
2026-05-06 18:52 50.47235 19.08187 983 ft 11 kts 90°
2026-05-06 18:52 50.47234 19.08317 985 ft 12 kts 90°
2026-05-06 18:52 50.47234 19.08494 985 ft 18 kts 90°
2026-05-06 18:53 50.47232 19.08695 986 ft 17 kts 90°
2026-05-06 18:53 50.47232 19.08884 989 ft 17 kts 90°
2026-05-06 18:53 50.47232 19.09086 993 ft 18 kts 91°
2026-05-06 18:53 50.47231 19.09294 994 ft 19 kts 90°
2026-05-06 18:54 50.47230 19.09529 998 ft 20 kts 90°
2026-05-06 18:54 50.47232 19.09742 1004 ft 18 kts 91°
2026-05-06 18:54 50.47230 19.09922 1008 ft 15 kts 89°
2026-05-06 18:54 50.47281 19.10113 1012 ft 19 kts 53°
2026-05-06 18:55 50.47365 19.10282 1010 ft 21 kts 52°
2026-05-06 18:55 50.47512 19.10446 1008 ft 27 kts
2026-05-06 18:55 50.47595 19.10286 1006 ft 22 kts 271°
2026-05-06 18:55 50.47596 19.09657 990 ft 99 kts 270°
2026-05-06 18:56 50.47599 19.08170 985 ft 166 kts 269°
2026-05-06 18:56 50.47607 19.06217 1387 ft 187 kts 268°
2026-05-06 18:56 50.47617 19.04145 2147 ft 194 kts 266°
2026-05-06 18:56 50.47616 19.01988 2856 ft 209 kts 265°
2026-05-06 18:57 50.47607 18.99590 3460 ft 231 kts 265°
2026-05-06 18:57 50.47602 18.97011 4069 ft 247 kts 265°
2026-05-06 18:57 50.47601 18.94218 4722 ft 261 kts 265°
2026-05-06 18:57 50.47585 18.91373 5628 ft 264 kts 264°
2026-05-06 18:58 50.47552 18.88534 6576 ft 264 kts 263°
2026-05-06 18:58 50.47472 18.85683 7450 ft 264 kts 255°
2026-05-06 18:58 50.46733 18.83158 8252 ft 257 kts 224°
2026-05-06 18:58 50.45289 18.81608 9059 ft 257 kts 201°
2026-05-06 18:59 50.43531 18.80871 9756 ft 264 kts 194°
2026-05-06 18:59 50.41718 18.80198 10345 ft 275 kts 195°
2026-05-06 18:59 50.39796 18.79455 10765 ft 292 kts 195°
2026-05-06 18:59 50.37774 18.78654 11332 ft 303 kts 196°
2026-05-06 19:00 50.35748 18.77844 12077 ft 307 kts 196°
2026-05-06 19:00 50.33672 18.77007 12817 ft 310 kts 196°
2026-05-06 19:00 50.31571 18.76157 13535 ft 314 kts 196°
2026-05-06 19:00 50.29454 18.75303 14258 ft 316 kts 196°
2026-05-06 19:01 50.27329 18.74441 14954 ft 320 kts 197°
2026-05-06 19:01 50.25166 18.73564 15634 ft 323 kts 197°
2026-05-06 19:01 50.22979 18.72678 16287 ft 326 kts 197°
2026-05-06 19:01 50.20795 18.71792 16925 ft 329 kts 197°
2026-05-06 19:02 50.18576 18.70894 17562 ft 332 kts 197°
2026-05-06 19:02 50.16337 18.69989 18178 ft 335 kts 197°
2026-05-06 19:02 50.14053 18.69067 18804 ft 338 kts 197°
2026-05-06 19:02 50.11791 18.68154 19386 ft 341 kts 197°
2026-05-06 19:03 50.09497 18.67229 19966 ft 344 kts 197°
2026-05-06 19:03 50.07176 18.66294 20557 ft 346 kts 197°
2026-05-06 19:03 50.04836 18.65351 21126 ft 349 kts 197°
2026-05-06 19:03 50.02469 18.64399 21700 ft 352 kts 197°
2026-05-06 19:04 50.00092 18.63443 22266 ft 354 kts 197°
2026-05-06 19:04 49.97725 18.62493 22821 ft 357 kts 197°
2026-05-06 19:04 49.95319 18.61529 23352 ft 359 kts 198°
2026-05-06 19:04 49.92897 18.60558 23886 ft 362 kts 198°
2026-05-06 19:05 49.90453 18.59582 24382 ft 365 kts 198°
2026-05-06 19:05 49.87987 18.58600 24892 ft 368 kts 198°
2026-05-06 19:05 49.85503 18.57629 25381 ft 371 kts 197°
2026-05-06 19:05 49.82956 18.56824 25844 ft 375 kts 194°
2026-05-06 19:06 49.80387 18.56115 26287 ft 378 kts 194°
2026-05-06 19:06 49.77801 18.55394 26727 ft 381 kts 194°
2026-05-06 19:06 49.75169 18.54659 27166 ft 383 kts 194°
2026-05-06 19:06 49.72539 18.53927 27552 ft 387 kts 194°
2026-05-06 19:07 49.69897 18.53191 27959 ft 389 kts 194°
2026-05-06 19:07 49.67239 18.52453 28340 ft 391 kts 194°
2026-05-06 19:07 49.64571 18.51713 28709 ft 393 kts 194°
2026-05-06 19:07 49.61874 18.50966 29060 ft 395 kts 194°
2026-05-06 19:08 49.59146 18.50210 29376 ft 397 kts 194°
2026-05-06 19:08 49.56435 18.49462 29665 ft 400 kts 194°
2026-05-06 19:08 49.53686 18.48702 29972 ft 402 kts 194°
2026-05-06 19:08 49.50921 18.47939 30247 ft 404 kts 194°
2026-05-06 19:09 49.48157 18.47178 30606 ft 404 kts 195°
2026-05-06 19:09 49.45418 18.46425 31037 ft 402 kts 195°
2026-05-06 19:09 49.42658 18.45669 31445 ft 400 kts 195°
2026-05-06 19:09 49.39905 18.44832 31846 ft 397 kts 198°
2026-05-06 19:10 49.37264 18.43808 32219 ft 394 kts 200°
2026-05-06 19:10 49.34660 18.42621 32581 ft 392 kts 201°
2026-05-06 19:10 49.32055 18.41437 32811 ft 392 kts 201°
2026-05-06 19:11 49.26829 18.39070 32830 ft 392 kts 201°
2026-05-06 19:11 49.21579 18.36691 32837 ft 392 kts 201°
2026-05-06 19:12 49.16349 18.34364 32921 ft 395 kts 198°
2026-05-06 19:12 49.13680 18.33389 33260 ft 395 kts 197°
2026-05-06 19:12 49.11018 18.32473 33663 ft 393 kts 197°
2026-05-06 19:12 49.08360 18.31563 34030 ft 391 kts 197°
2026-05-06 19:13 49.05691 18.30644 34331 ft 390 kts 197°
2026-05-06 19:13 49.03053 18.29730 34573 ft 391 kts 197°
2026-05-06 19:13 49.00413 18.28814 34767 ft 392 kts 197°
2026-05-06 19:13 48.97731 18.27879 34942 ft 393 kts 197°
2026-05-06 19:14 48.95083 18.26957 35112 ft 395 kts 197°
2026-05-06 19:14 48.92381 18.26016 35288 ft 396 kts 197°
2026-05-06 19:14 48.89691 18.25079 35452 ft 397 kts 197°
2026-05-06 19:14 48.86988 18.24147 35617 ft 398 kts 197°
2026-05-06 19:15 48.84280 18.23215 35756 ft 400 kts 197°
2026-05-06 19:15 48.78803 18.21323 35819 ft 408 kts 197°
2026-05-06 19:16 48.73224 18.19395 35824 ft 416 kts 196°
2026-05-06 19:16 48.67529 18.17434 35825 ft 423 kts 196°
2026-05-06 19:17 48.61744 18.15443 35835 ft 429 kts 196°
2026-05-06 19:17 48.55933 18.13450 35833 ft 433 kts 196°
2026-05-06 19:18 48.50030 18.11428 35831 ft 436 kts 196°
2026-05-06 19:18 48.44082 18.09397 35834 ft 437 kts 196°
2026-05-06 19:19 48.38174 18.07384 35837 ft 436 kts 196°
2026-05-06 19:19 48.32255 18.05373 35829 ft 436 kts 196°
2026-05-06 19:20 48.26342 18.03366 35837 ft 437 kts 196°
2026-05-06 19:20 48.20398 18.01354 35838 ft 437 kts 196°
2026-05-06 19:21 48.14458 17.99347 35835 ft 437 kts 196°
2026-05-06 19:21 48.08517 17.97346 35838 ft 437 kts 195°
2026-05-06 19:22 48.02605 17.95358 35838 ft 437 kts 195°
2026-05-06 19:22 47.96672 17.93369 35842 ft 438 kts 195°
2026-05-06 19:23 47.90712 17.91377 35828 ft 437 kts 195°
2026-05-06 19:23 47.84793 17.89412 35830 ft 437 kts 195°
2026-05-06 19:24 47.78851 17.87443 35836 ft 438 kts 195°
2026-05-06 19:24 47.72915 17.85475 35840 ft 438 kts 195°
2026-05-06 19:25 47.66997 17.83517 35841 ft 438 kts 195°
2026-05-06 19:25 47.61043 17.81545 35856 ft 437 kts 195°
2026-05-06 19:26 47.55111 17.79590 35860 ft 437 kts 195°
2026-05-06 19:26 47.49213 17.77649 35868 ft 438 kts 195°
2026-05-06 19:27 47.43253 17.75690 35869 ft 437 kts 195°
2026-05-06 19:27 47.37321 17.73746 35881 ft 437 kts 195°
2026-05-06 19:28 47.31397 17.71811 35880 ft 438 kts 195°
2026-05-06 19:28 47.25447 17.69872 35886 ft 438 kts 195°
2026-05-06 19:29 47.19489 17.67934 35879 ft 439 kts 195°
2026-05-06 19:29 47.13540 17.66003 35878 ft 439 kts 195°
2026-05-06 19:30 47.07564 17.64066 35882 ft 439 kts 195°
2026-05-06 19:30 47.01613 17.62144 35886 ft 439 kts 195°
2026-05-06 19:31 46.95684 17.60234 35887 ft 439 kts 195°
2026-05-06 19:31 46.86748 17.57365 35886 ft 439 kts 195°
2026-05-06 19:32 46.80789 17.55467 35888 ft 440 kts 195°
2026-05-06 19:32 46.74777 17.53550 35886 ft 441 kts 195°
2026-05-06 19:33 46.68800 17.51645 35894 ft 441 kts 195°
2026-05-06 19:33 46.62820 17.49741 35889 ft 441 kts 195°
2026-05-06 19:34 46.56782 17.47824 35891 ft 442 kts 195°
2026-05-06 19:34 46.50794 17.45927 35894 ft 442 kts 195°
2026-05-06 19:35 46.44778 17.44024 35894 ft 442 kts 195°
2026-05-06 19:35 46.38762 17.42126 35897 ft 443 kts 196°
2026-05-06 19:36 46.32755 17.40235 35899 ft 444 kts 196°
2026-05-06 19:36 46.26725 17.38339 35905 ft 445 kts 196°
2026-05-06 19:37 46.20661 17.36437 35908 ft 444 kts 196°
2026-05-06 19:37 46.14654 17.34556 35910 ft 444 kts 195°
2026-05-06 19:38 46.08592 17.32632 35915 ft 445 kts 195°
2026-05-06 19:38 46.02551 17.30743 35919 ft 446 kts 195°
2026-05-06 19:39 45.96497 17.28888 35919 ft 445 kts 195°
2026-05-06 19:39 45.90418 17.27111 35919 ft 445 kts 195°
2026-05-06 19:40 45.84346 17.25352 35920 ft 446 kts 195°
2026-05-06 19:40 45.78297 17.23601 35918 ft 446 kts 195°
2026-05-06 19:41 45.72235 17.21843 35917 ft 445 kts 195°
2026-05-06 19:41 45.66158 17.20083 35918 ft 445 kts 195°
2026-05-06 19:42 45.60092 17.18327 35918 ft 445 kts 195°
2026-05-06 19:42 45.54062 17.16587 35916 ft 444 kts 195°
2026-05-06 19:43 45.48028 17.14845 35922 ft 444 kts 195°
2026-05-06 19:43 45.41982 17.13106 35924 ft 444 kts 195°
2026-05-06 19:44 45.35935 17.11373 35925 ft 444 kts 196°
2026-05-06 19:44 45.29878 17.09638 35927 ft 444 kts 196°
2026-05-06 19:45 45.23821 17.07907 35928 ft 444 kts 196°
2026-05-06 19:45 45.17798 17.06190 35933 ft 444 kts 196°
2026-05-06 19:46 45.11758 17.04471 35936 ft 443 kts 196°
2026-05-06 19:46 45.05726 17.02758 35948 ft 443 kts 197°
2026-05-06 19:47 44.99680 17.01043 35955 ft 442 kts 196°
2026-05-06 19:47 44.93648 16.99339 35963 ft 441 kts 197°
2026-05-06 19:48 44.87650 16.97648 35964 ft 442 kts 196°
2026-05-06 19:48 44.81627 16.95963 35971 ft 441 kts 196°
2026-05-06 19:49 44.75635 16.94287 35969 ft 441 kts 197°
2026-05-06 19:49 44.69625 16.92602 35981 ft 440 kts 196°
2026-05-06 19:50 44.63631 16.90927 35986 ft 440 kts 197°
2026-05-06 19:50 44.57628 16.89254 35994 ft 438 kts 197°
2026-05-06 19:51 44.51651 16.87586 36006 ft 439 kts 197°
2026-05-06 19:51 44.45670 16.85921 36005 ft 437 kts 197°
2026-05-06 19:52 44.39726 16.84270 36014 ft 437 kts 197°
2026-05-06 19:52 44.33732 16.82609 36019 ft 436 kts 197°
2026-05-06 19:53 44.27862 16.80786 36025 ft 435 kts 200°
2026-05-06 19:53 44.21993 16.78701 36028 ft 433 kts 199°
2026-05-06 19:54 44.16142 16.76638 36035 ft 433 kts 200°
2026-05-06 19:54 44.10311 16.74583 36043 ft 433 kts 199°
2026-05-06 19:55 44.04503 16.72533 36041 ft 432 kts 200°
2026-05-06 19:55 43.98696 16.70489 36042 ft 433 kts 200°
2026-05-06 19:56 43.92868 16.68441 36041 ft 432 kts 200°
2026-05-06 19:56 43.87002 16.66387 36037 ft 433 kts 199°
2026-05-06 19:57 43.81176 16.64360 36035 ft 433 kts 200°
2026-05-06 19:57 43.75322 16.62324 36030 ft 432 kts 199°
2026-05-06 19:58 43.69494 16.60294 36023 ft 432 kts 200°